This demonstration page uses our WeatherBlox Daily Observations layout. Learn more.

39.51506, -84.39828

Hourly Observations for August 9, 2020

Temp ( °F °C ) Dew Point ( °F °C ) Humidity (%) Winds ( mph kmh ) Pressure ( in mb ) Visibility ( mi km ) Precip ( " mm )
12:15 am 00:15 Clear with Mist and Fog 64 17.7 64 17.5 99 99 Calm 30.16 1021 5 8.0467 0 0
12:35 am 00:35 Clear with Mist and Fog 64 17.8 64 17.5 98 98 Calm 30.15 1021 5 8.0467 0 0
12:55 am 00:55 Clear with Mist and Fog 64 17.7 63 17.3 98 98 Calm 30.15 1021 5 8.0467 0 0
1:15 am 01:15 Clear 63 17.3 63 17 98 98 N 3 6 30.15 1021 10 16.0934 0 0
1:35 am 01:35 Clear 64 17.6 63 17.3 98 98 Calm 30.16 1021 10 16.0934 0 0
1:55 am 01:55 Clear 62 16.9 62 16.7 99 99 Calm 30.16 1021 10 16.0934 0 0
2:15 am 02:15 Clear with Mist and Fog 63 17 61 16 94 94 Calm 30.15 1021 7 11.26538 0 0
2:35 am 02:35 Clear with Mist and Fog 63 17 63 17 100 100 Calm 30.15 1021 7 11.26538 0 0
2:55 am 02:55 Hazy 63 17 N/A N/A Calm 30.16 1021 7 11.26538 0 0
3:15 am 03:15 Clear 61 16 N/A N/A NE 3 6 30.16 1021 7 11.26538 0 0
3:35 am 03:35 Clear 61 16 61 16 100 100 Calm 30.16 1021 7 11.26538 0 0
3:55 am 03:55 Clear 61 16 N/A N/A Calm 30.15 1021 10 16.0934 0 0
4:15 am 04:15 Clear 61 16 N/A N/A Calm 30.16 1021 7 11.26538 0 0
4:35 am 04:35 Hazy 61 16 N/A N/A Calm 30.16 1021 5 8.0467 0 0
4:55 am 04:55 Clear with Mist and Fog 61 16 N/A N/A Calm 30.16 1021 3 4.82802 0 0
5:15 am 05:15 Hazy 61 16 N/A N/A Calm 30.16 1021 7 11.26538 0 0
5:35 am 05:35 Mostly Cloudy with Mist and Fog 61 16 N/A N/A Calm 30.16 1021 1.75 2.816345 0 0
5:55 am 05:55 Mostly Cloudy with Mist and Fog 61 16 N/A N/A Calm 30.16 1021 0.75 1.207005 0 0
6:15 am 06:15 Hazy 61 16 N/A N/A Calm 30.16 1021 5 8.0467 0 0
6:35 am 06:35 Clear with Mist and Fog 61 16 N/A N/A Calm 30.16 1021 3.5 5.63269 0 0
6:55 am 06:55 Sunny with Mist and Fog 61 16 N/A N/A Calm 30.16 1021 3.5 5.63269 0 0
7:15 am 07:15 Sunny with Mist and Fog 61 16 N/A N/A Calm 30.17 1022 3.5 5.63269 0 0
7:35 am 07:35 Hazy 61 16 N/A N/A Calm 30.17 1022 5 8.0467 0 0
7:55 am 07:55 Hazy 63 17 N/A N/A Calm 30.17 1022 4 6.43736 0 0
8:15 am 08:15 Hazy 64 18 N/A N/A Calm 30.17 1022 5 8.0467 0 0
8:35 am 08:35 Sunny 66 19.1 65 18.3 95 95 Calm 30.17 1022 7 11.26538 0 0
8:55 am 08:55 Sunny with Mist and Fog 68 20.2 66 18.8 92 92 Calm 30.16 1021 7 11.26538 0 0
9:15 am 09:15 Sunny 70 21.3 66 19.1 87 87 Calm 30.16 1021 7 11.26538 0 0
9:35 am 09:35 Sunny 72 22.2 67 19.3 84 84 Calm 30.16 1021 10 16.0934 0 0
9:55 am 09:55 Sunny 74 23.6 66 19 75 75 Calm 30.16 1021 10 16.0934 0 0
10:15 am 10:15 Sunny 77 24.8 67 19.4 72 72 SW 3 6 30.15 1021 10 16.0934 0 0
10:35 am 10:35 Sunny 78 25.7 67 19.5 69 69 W 3 6 30.14 1021 10 16.0934 0 0
10:55 am 10:55 Sunny 80 26.5 67 19.6 66 66 SW 5 7 30.14 1021 10 16.0934 0 0
11:15 am 11:15 Sunny 81 27 68 19.8 65 65 WSW 5 7 30.14 1021 10 16.0934 0 0
11:35 am 11:35 Sunny 82 27.6 68 19.8 63 63 WSW 7 11 30.14 1021 10 16.0934 0 0
11:55 am 11:55 Sunny 82 27.9 66 19 58 58 WSW 6 9 30.14 1021 10 16.0934 0 0
12:15 pm 12:15 Sunny 83 28.6 66 18.9 56 56 WSW 6 9 30.12 1020 10 16.0934 0 0
12:35 pm 12:35 Sunny 84 28.9 66 18.8 54 54 WSW 6 9 30.12 1020 10 16.0934 0 0
12:55 pm 12:55 Sunny 85 29.2 65 18.5 53 53 SW 6 9 30.11 1020 10 16.0934 0 0
1:15 pm 13:15 Sunny 85 29.2 66 18.8 53 53 WSW 8 13 30.11 1020 10 16.0934 0 0
1:35 pm 13:35 Sunny 85 29.7 67 19.6 55 55 SW 9 15 30.11 1020 10 16.0934 0 0
1:55 pm 13:55 Sunny 85 29.7 66 18.7 52 52 SW 3 6 30.1 1019 10 16.0934 0 0
2:15 pm 14:15 Sunny 85 29.6 68 20 56 56 WSW 6 9 30.1 1019 10 16.0934 0 0
2:35 pm 14:35 Sunny 86 30 67 19.3 53 53 W 5 7 30.1 1019 10 16.0934 0 0
2:55 pm 14:55 Sunny 87 30.3 68 19.8 53 53 W 3 6 30.09 1019 10 16.0934 0 0
3:15 pm 15:15 Sunny 86 30 68 20.1 55 55 W 5 7 30.08 1019 10 16.0934 0 0
3:35 pm 15:35 Sunny 88 30.9 69 20.6 54 54 WSW 7 11 30.08 1019 10 16.0934 0 0
3:55 pm 15:55 Sunny 85 29.3 69 20.5 59 59 W 7 11 30.08 1019 10 16.0934 0 0
4:15 pm 16:15 Sunny 87 30.6 68 20.1 53 53 W 6 9 30.07 1018 10 16.0934 0 0
4:35 pm 16:35 Sunny 87 30.6 67 19.3 51 51 WSW 6 9 30.07 1018 10 16.0934 0 0
4:55 pm 16:55 Sunny 88 30.9 67 19.5 51 51 W 3 6 30.06 1018 10 16.0934 0 0
5:15 pm 17:15 Sunny 87 30.5 67 19.3 51 51 WSW 6 9 30.06 1018 10 16.0934 0 0
5:35 pm 17:35 Sunny 87 30.5 67 19.3 51 51 WNW 3 6 30.05 1018 10 16.0934 0 0
5:55 pm 17:55 Sunny 86 30 67 19.6 54 54 Calm 30.04 1017 10 16.0934 0 0
6:15 pm 18:15 Sunny 87 30.4 67 19.5 52 52 Calm 30.03 1017 10 16.0934 0 0
6:35 pm 18:35 Sunny 87 30.3 68 19.9 54 54 Calm 30.03 1017 10 16.0934 0 0
6:55 pm 18:55 Sunny 85 29.4 68 20.1 57 57 Calm 30.02 1017 10 16.0934 0 0
7:15 pm 19:15 Sunny 86 29.9 69 20.4 57 57 Calm 30.01 1016 10 16.0934 0 0
7:35 pm 19:35 Sunny 84 28.8 70 21 63 63 Calm 30.02 1017 10 16.0934 0 0
7:55 pm 19:55 Sunny 81 27.4 73 22.8 76 76 Calm 30.03 1017 10 16.0934 0 0
8:15 pm 20:15 Sunny 79 26.3 75 24 87 87 Calm 30.03 1017 10 16.0934 0 0
8:35 pm 20:35 Sunny 79 26.2 73 22.7 81 81 Calm 30.03 1017 10 16.0934 0 0
8:55 pm 20:55 Clear 75 23.8 73 22.5 92 92 Calm 30.04 1017 10 16.0934 0 0
9:15 pm 21:15 Clear 75 23.9 72 22.3 91 91 Calm 30.05 1017 10 16.0934 0 0
9:35 pm 21:35 Clear 73 22.7 71 21.7 94 94 Calm 30.06 1018 10 16.0934 0 0
9:55 pm 21:55 Clear 73 22.7 71 21.5 93 93 NNE 3 6 30.07 1018 10 16.0934 0 0
10:15 pm 22:15 Clear 72 22.3 70 21.3 94 94 Calm 30.07 1018 10 16.0934 0 0
10:35 pm 22:35 Clear 72 22.1 71 21.5 96 96 Calm 30.07 1018 10 16.0934 0 0
10:55 pm 22:55 Clear 71 21.7 70 21.1 96 96 Calm 30.07 1018 10 16.0934 0 0
11:15 pm 23:15 Clear 70 21 69 20.7 98 98 Calm 30.07 1018 10 16.0934 0 0
11:35 pm 23:35 Clear 69 20.7 69 20.3 98 98 Calm 30.07 1018 10 16.0934 0 0
11:55 pm 23:55 Clear 69 20.5 68 20.2 98 98 Calm 30.07 1018 7 11.26538 0 0

Powered by AerisWeather